Wind_Speed
16 18 18 19 19 17 16 17 16 16 15 18 21 16 16 25 27 23 19 15 12 9 4 1 3 4 4 6 7 9 9 8 7 6 7 8 8 8 9 9 9 10 10 10 10 10 10 10 10 9 10 10 10 10 9 9 10 10 10 10 10 9 10 10 10 11 11 12 13 14 15 16 17 17
18 17 17 19 19 17 17 17 16 15 14 16 20 16 14 22 26 24 20 16 13 11 6 2 3 4 3 4 7 9 10 10 8 5 6 8 8 7 9 10 11 13 13 13 13 12 12 12 12 11 11 11 11 11 11 10 10 10 10 11 11 11 11 11 11 12 12 12 12 13 14 15 16 17
19 19 18 19 19 18 20 20 17 15 15 15 14 12 16 23 24 19 17 16 14 10 7 4 1 2 3 3 5 7 10 11 10 7 7 9 8 9 12 13 15 17 16 17 17 15 14 15 15 15 14 14 14 13 13 12 12 11 11 11 11 12 12 12 13 13 13 13 13 14 14 14 15 16
17 18 18 18 18 19 20 20 17 14 12 11 10 10 15 20 20 17 14 15 16 11 6 4 2 1 2 2 2 5 8 9 9 10 11 10 10 11 13 14 16 18 18 19 20 18 17 17 18 17 15 15 16 15 15 14 13 12 12 12 12 12 12 13 14 14 15 15 15 15 15 15 16 16
17 17 18 19 18 17 17 17 16 13 9 8 8 10 14 15 14 13 11 12 15 13 8 6 5 3 2 1 0 3 5 7 9 10 11 10 10 10 10 10 13 16 18 19 19 19 19 19 20 18 17 18 18 18 17 15 14 13 12 12 12 13 13 13 14 15 16 16 17 17 17 17 17 17
20 19 19 20 19 18 16 15 14 12 10 9 9 10 12 13 12 10 8 9 11 11 9 9 8 5 1 1 2 2 3 7 9 8 8 8 6 5 5 8 13 17 19 18 16 17 18 19 21 21 21 21 22 22 21 18 15 13 12 12 13 13 12 12 13 14 15 16 17 18 18 19 19 19
21 20 21 21 20 18 17 16 13 13 12 11 11 12 10 10 10 8 7 7 8 8 8 10 10 5 2 1 3 2 2 7 7 4 3 1 2 3 5 10 14 18 19 16 14 15 16 17 19 21 23 24 24 25 23 19 17 16 15 15 15 14 13 13 13 14 15 16 17 18 19 19 20 20
20 19 20 20 19 17 16 15 12 13 14 11 9 10 10 8 8 7 8 8 7 7 8 8 7 4 2 1 0 1 1 3 2 3 3 4 4 6 9 12 15 17 19 17 14 14 15 15 18 21 23 25 26 26 23 19 17 17 18 18 17 16 16 16 16 16 16 16 17 17 18 19 20 20
19 17 16 17 16 15 15 15 13 13 14 11 9 8 8 8 8 8 9 8 7 7 8 7 6 4 2 1 2 2 1 2 3 4 6 7 7 10 12 15 16 18 20 19 15 15 15 16 19 22 24 26 27 26 22 18 16 17 18 19 18 19 20 21 21 20 20 19 19 19 18 18 19 19
19 16 15 14 13 14 14 15 14 13 12 10 9 7 5 6 9 10 11 9 7 8 9 7 5 5 4 3 3 2 3 6 7 6 7 9 10 12 14 17 17 19 21 20 17 15 16 18 21 23 25 27 27 24 20 17 16 16 17 17 18 20 22 23 23 24 24 25 24 23 21 20 19 19
17 16 15 13 12 13 14 14 14 14 13 12 10 8 7 7 8 10 12 12 9 8 9 7 6 6 6 5 6 6 7 8 9 9 10 12 14 16 18 19 20 21 23 22 19 17 18 20 22 24 25 25 24 21 17 15 14 15 16 17 19 21 22 23 24 26 27 28 28 27 25 23 21 20
14 13 12 12 12 13 13 13 13 14 15 14 13 11 10 9 10 11 13 12 10 9 10 8 7 8 8 8 9 11 11 11 13 13 14 16 17 18 19 21 23 25 26 25 22 20 21 22 23 24 23 21 19 16 13 13 14 15 17 19 20 21 22 23 25 27 28 29 28 28 27 26 24 22
13 13 12 12 12 12 13 13 12 14 15 15 15 13 12 13 13 13 14 13 11 11 11 10 7 7 8 10 11 13 14 13 14 14 15 16 17 18 20 22 25 27 27 26 25 24 23 24 24 22 20 18 15 13 13 14 17 18 19 19 20 20 22 23 25 27 28 27 27 27 27 27 26 25
15 15 14 14 14 13 13 13 13 14 15 16 15 15 14 15 16 16 16 13 13 14 14 12 10 8 8 10 11 11 11 12 13 13 15 16 18 21 24 25 26 27 27 28 28 27 24 23 23 21 18 16 15 14 15 18 19 19 20 21 21 21 22 23 24 25 25 25 25 26 26 26 27 26
16 16 16 16 16 16 15 14 14 15 15 15 15 14 14 14 17 18 18 15 14 15 15 14 14 12 11 11 11 11 11 12 13 15 17 18 20 23 26 28 28 27 27 28 29 28 24 21 20 18 15 14 14 13 15 18 20 20 22 24 23 21 20 20 21 21 22 21 22 22 24 26 27 28
18 18 18 18 17 17 16 15 14 14 14 15 14 14 14 15 16 18 18 16 14 14 14 14 15 16 16 16 16 15 15 15 16 17 19 21 23 25 27 28 29 28 27 27 28 27 24 20 17 15 13 13 13 13 15 19 21 23 23 22 19 17 15 15 16 17 18 18 18 20 22 24 27 29
20 20 20 19 19 19 19 19 17 16 16 16 16 16 17 17 17 18 18 17 16 15 14 15 16 17 18 18 18 18 18 18 19 20 22 23 25 26 26 28 28 28 27 27 26 25 23 19 16 14 13 14 15 16 19 21 22 22 20 17 14 14 13 13 14 16 17 18 18 19 21 23 24 26
21 23 22 22 22 22 22 22 20 20 19 19 19 20 20 19 19 19 19 19 18 17 16 16 16 18 18 18 18 18 19 20 21 22 23 24 25 26 27 27 27 27 26 26 24 23 21 20 18 17 17 18 18 18 19 21 22 21 18 15 14 15 16 17 17 17 18 19 20 21 21 22 23 23
25 25 24 24 24 25 26 25 23 24 24 22 22 23 22 20 20 20 20 20 20 19 17 17 17 19 20 19 19 20 20 21 22 23 24 25 26 26 26 26 25 23 23 23 22 20 20 21 20 19 19 19 19 19 21 23 23 21 18 16 16 17 18 19 19 20 20 20 21 21 21 22 21 21
28 27 26 26 25 26 27 27 26 25 24 24 25 24 22 21 21 21 20 19 19 18 17 17 17 18 19 20 19 19 20 21 22 23 24 24 24 24 24 24 22 20 21 22 20 19 19 21 21 21 21 21 22 23 24 24 22 21 20 20 20 21 22 23 23 22 21 21 20 20 21 21 21 21
30 30 29 29 27 27 27 26 24 24 24 25 25 23 22 22 21 20 19 18 18 17 17 16 16 16 17 17 17 18 19 21 22 22 22 23 23 23 23 23 22 20 21 22 21 21 22 23 25 26 26 25 25 26 27 26 25 25 25 25 26 27 26 25 23 22 20 19 19 19 20 20 21 22
34 33 32 31 29 29 28 25 22 23 26 26 24 23 22 20 19 19 19 18 16 16 15 15 14 14 14 15 16 17 19 20 20 20 21 22 22 22 22 23 23 22 21 22 23 23 25 27 30 32 33 32 30 29 29 30 30 29 29 29 27 25 23 20 19 18 17 17 17 18 19 20 21 23
35 35 33 32 31 29 26 23 22 24 26 26 23 22 21 19 19 19 18 15 14 14 13 13 12 12 13 14 16 17 18 18 18 18 18 20 21 21 22 24 25 25 24 25 27 28 29 32 33 34 35 35 34 32 30 30 28 26 25 23 20 18 16 15 15 16 15 16 17 18 19 19 21 22
36 35 33 32 29 26 24 23 24 26 27 24 21 21 21 20 19 17 15 13 12 12 11 11 11 12 13 15 16 17 17 16 16 16 17 19 20 21 22 24 24 25 26 27 30 31 31 32 32 31 29 29 29 29 27 25 22 19 19 18 16 15 16 16 14 13 13 13 13 15 16 18 20 22
36 35 33 29 26 25 25 24 26 28 27 23 20 20 20 18 17 15 13 12 12 11 10 10 12 13 15 16 16 16 16 15 15 15 16 18 19 20 21 22 22 23 25 27 28 28 28 28 28 28 25 23 25 27 27 24 20 18 20 21 19 18 19 18 16 12 10 10 11 13 17 19 22 25
36 35 32 28 27 26 25 26 28 28 25 22 20 19 18 16 15 13 12 12 12 11 12 13 14 14 14 16 16 16 16 16 16 16 16 17 18 19 19 20 21 22 23 24 25 26 26 26 25 24 23 23 24 26 27 26 23 22 22 23 21 20 20 19 15 12 11 12 13 15 19 22 25 26
35 34 30 27 25 25 24 25 27 25 22 19 19 19 17 16 14 13 12 12 12 13 13 13 13 13 13 14 15 16 15 15 15 16 16 18 18 18 19 21 22 22 22 24 26 27 26 23 21 21 21 23 25 26 27 27 27 26 24 22 20 20 19 17 14 13 14 15 17 19 21 23 26 27
33 30 27 24 22 22 23 25 25 23 20 20 21 21 19 18 17 15 14 14 14 13 13 12 11 12 13 13 13 13 14 14 15 17 18 21 21 21 22 23 22 21 22 25 27 27 24 21 19 19 20 22 23 25 26 27 28 27 26 23 20 18 18 17 15 15 16 18 19 22 24 26 28 29
29 26 23 22 22 23 25 25 24 22 22 23 23 22 20 20 19 17 16 15 15 14 13 12 11 12 13 13 13 14 15 17 19 20 22 23 23 22 23 22 22 23 25 27 25 22 18 16 17 18 20 21 22 24 25 27 28 27 25 24 23 20 18 18 18 18 19 21 22 24 25 27 28 28
26 22 19 21 24 26 26 25 23 22 24 26 24 22 21 20 19 17 16 16 15 15 15 14 13 13 13 14 15 16 18 20 21 22 22 22 21 22 23 24 25 26 25 24 20 15 13 13 15 17 19 21 22 23 23 25 27 25 23 24 26 24 20 19 20 20 21 23 24 25 25 27 27 27
25 22 22 24 26 27 25 24 23 24 26 26 24 22 21 19 18 17 15 14 13 13 13 13 13 14 15 15 16 18 19 20 21 20 20 20 21 22 24 26 26 24 21 19 16 14 14 16 17 18 20 21 21 21 20 22 24 25 24 24 24 23 21 20 20 20 22 24 25 26 27 27 26 26
27 27 28 28 27 27 27 26 26 25 24 23 22 21 20 19 17 15 13 12 12 12 13 14 14 15 15 15 15 17 18 18 18 18 19 20 21 23 25 25 22 19 18 17 14 12 12 13 15 16 17 17 18 18 19 20 22 23 23 22 20 20 19 19 20 21 23 25 26 26 26 24 22 20
31 30 32 31 29 29 28 27 26 24 22 20 19 19 18 16 14 13 12 12 12 12 13 13 12 12 12 13 14 14 15 15 16 18 19 21 21 22 21 19 16 15 16 16 14 12 11 11 11 12 13 14 16 17 19 20 20 20 20 19 18 18 19 20 21 23 24 24 24 24 22 19 18 17
35 35 35 33 30 28 26 24 23 21 20 18 17 16 14 13 11 11 11 10 9 9 9 9 9 10 12 13 13 12 11 13 15 18 19 19 19 19 17 15 14 15 16 16 15 15 15 14 13 13 13 14 14 13 13 16 17 17 18 18 20 21 22 22 21 21 20 20 21 22 22 20 18 17
39 39 36 32 28 25 23 21 20 18 17 15 13 12 11 10 10 10 9 7 7 7 8 9 10 11 12 11 9 9 11 14 17 18 18 18 17 17 15 14 16 17 17 16 16 15 15 15 15 15 15 15 14 12 10 12 16 19 20 20 20 20 20 19 17 16 17 18 20 22 24 24 22 18
38 37 31 26 24 22 20 18 16 15 13 12 10 9 10 10 10 9 8 8 8 9 10 10 10 9 9 8 8 10 13 16 17 17 17 16 15 14 13 15 18 18 16 14 13 13 13 13 14 15 16 18 19 19 17 16 16 17 17 17 15 14 14 14 15 16 18 20 21 22 25 26 23 18
37 32 25 22 22 20 18 17 15 13 12 11 11 11 11 11 10 9 9 9 9 9 9 8 6 6 7 6 7 10 12 14 15 16 16 15 13 12 14 17 18 15 11 10 11 12 12 13 12 13 15 17 20 22 22 19 14 9 9 12 11 11 12 14 16 17 19 21 22 23 23 23 20 15
29 24 22 23 23 19 17 15 14 13 13 12 12 13 12 10 10 9 9 9 8 7 6 5 5 6 5 5 6 9 11 13 15 15 16 15 13 13 17 18 14 9 8 9 11 11 11 12 12 12 13 15 18 20 22 20 12 7 4 9 11 12 13 15 18 20 21 23 24 22 20 18 15 12
21 18 18 20 20 18 16 15 14 14 14 14 12 12 12 11 11 9 8 7 7 6 5 6 6 5 4 5 7 8 10 13 13 14 15 15 14 16 18 15 9 7 8 10 10 10 10 11 12 12 12 14 14 16 19 18 12 7 5 8 11 13 15 17 19 21 23 24 23 19 14 10 8 8
19 19 17 16 16 16 16 15 15 17 17 15 13 13 12 12 11 9 8 7 7 6 5 5 6 6 6 7 8 9 11 12 13 13 14 14 15 17 15 10 7 8 10 11 11 11 11 11 12 12 12 13 13 13 13 12 8 6 6 8 11 14 16 18 19 21 22 22 20 16 12 9 6 6
22 20 18 16 16 17 17 17 19 20 18 15 14 14 13 12 11 10 9 8 8 7 6 7 8 7 7 8 10 12 14 14 14 14 14 16 16 13 9 7 8 10 11 12 13 12 12 11 12 12 11 11 10 9 8 7 6 7 9 10 13 15 17 18 19 20 20 19 17 15 13 11 8 8
22 21 18 16 16 17 19 19 20 19 16 15 15 14 13 13 13 11 10 9 8 7 7 7 7 6 6 9 12 14 14 14 14 15 15 15 12 7 6 8 9 10 11 13 13 13 12 11 11 11 9 7 7 7 7 7 8 10 11 12 14 16 16 17 18 17 16 15 15 15 14 13 11 12
19 20 19 17 17 19 20 20 19 16 14 13 13 12 13 13 12 10 9 8 7 7 6 4 4 5 6 8 9 10 10 10 11 12 11 9 7 7 8 9 9 10 11 11 11 12 11 10 10 9 6 3 4 6 7 8 9 11 12 13 14 15 16 16 16 14 13 13 13 13 14 14 14 14
18 22 22 20 20 20 20 19 17 14 12 13 13 12 12 12 11 10 10 10 8 7 5 5 5 6 6 6 7 7 7 8 10 11 9 7 8 9 10 9 8 10 10 10 11 12 10 9 8 6 3 3 4 6 7 9 10 11 12 12 13 15 16 15 13 12 11 11 11 11 12 13 14 14
20 22 21 19 20 20 19 17 15 13 14 14 14 14 13 13 12 11 10 9 9 7 7 7 6 5 6 6 7 7 6 8 10 10 7 7 10 11 10 8 9 10 10 11 12 12 10 9 6 3 2 3 4 6 8 10 11 11 11 12 13 15 15 13 12 10 9 9 10 11 13 15 17 18
Wind_Direction
136 135 130 125 122 123 137 150 154 159 171 181 181 174 157 158 162 161 160 163 172 183 207 170 110 90 77 78 66 53 55 61 54 49 52 59 69 63 50 49 47 42 40 36 30 25 19 13 8 4 1 360 357 354 350 346 344 343 343 341 338 336 331 326 321 315 309 303 296 290 286 282 279 276
148 142 134 131 128 123 133 141 139 141 154 170 177 183 180 171 169 165 158 159 173 182 177 144 111 96 78 65 60 44 32 35 41 42 37 48 65 55 38 38 37 32 32 32 30 27 23 16 9 2 359 358 354 350 347 343 338 333 330 327 325 324 323 321 319 317 314 311 307 302 296 290 285 280
159 153 144 142 140 139 144 147 145 141 143 149 155 168 179 178 177 174 168 163 165 177 179 165 113 74 86 76 65 41 23 25 34 40 34 37 45 34 24 20 17 16 17 17 18 18 20 18 14 10 6 1 357 352 347 344 340 335 329 323 317 313 311 309 309 308 308 307 307 306 303 299 294 288
157 158 158 154 149 150 153 157 162 160 151 145 143 153 166 176 185 190 187 172 160 167 195 198 192 172 125 100 78 34 25 27 33 41 43 41 38 27 19 12 8 8 7 4 2 4 8 9 10 12 9 4 1 355 350 345 343 340 335 328 321 315 310 306 303 301 300 299 299 299 300 299 297 295
135 142 151 151 149 154 160 165 170 171 168 160 154 155 152 157 175 187 185 175 168 172 189 189 169 162 193 210 285 358 20 27 21 31 45 46 39 30 19 7 2 1 356 352 352 356 0 359 357 359 0 0 0 357 353 349 346 344 340 333 326 321 317 310 305 301 298 296 294 293 292 293 293 293
134 135 139 142 144 149 155 158 157 156 163 168 162 160 155 150 158 169 166 168 173 175 178 176 160 133 137 278 341 344 13 19 10 20 46 44 30 25 14 352 348 348 344 343 348 353 357 354 348 347 350 352 354 354 350 347 346 345 344 340 334 329 325 317 310 305 301 298 296 294 291 290 289 288
145 142 140 140 141 143 148 150 146 144 152 160 155 152 160 167 169 169 162 156 156 157 164 173 166 134 110 63 28 23 4 14 22 46 71 59 291 306 330 330 333 337 337 340 348 350 351 349 341 338 340 343 346 347 345 342 341 341 341 343 341 338 333 327 320 313 308 304 300 297 294 292 290 288
152 149 146 145 146 148 153 156 153 151 155 162 162 157 159 172 179 170 158 149 144 153 163 167 162 146 135 148 177 196 322 356 72 153 220 233 240 268 296 311 317 327 337 341 343 342 343 340 333 330 332 334 336 339 339 336 335 336 336 338 339 337 334 331 328 324 319 314 309 303 299 295 292 290
159 157 156 156 159 163 167 169 166 163 164 169 178 180 175 175 180 172 161 153 151 168 176 162 146 153 164 203 230 208 244 253 216 222 252 253 256 269 289 305 309 321 334 337 333 331 331 327 324 325 326 327 329 331 331 330 330 330 330 332 334 334 333 331 330 329 326 322 319 314 308 302 296 292
169 169 171 173 175 176 179 182 180 177 178 179 183 189 186 174 172 172 169 166 162 171 179 175 163 171 188 211 227 218 201 221 231 243 250 255 265 277 295 308 311 319 329 331 327 322 320 320 321 321 321 321 323 324 323 323 324 325 327 331 333 332 330 329 328 328 328 327 325 322 319 313 307 300
182 184 186 187 188 188 190 191 189 190 191 189 190 190 190 187 180 180 183 185 188 180 174 184 199 207 218 219 220 228 225 226 239 248 251 260 272 284 299 310 315 320 324 327 324 315 312 315 316 316 317 318 320 320 320 321 322 325 327 329 329 329 328 327 327 327 328 328 327 327 325 322 316 310
199 202 204 202 199 200 204 201 194 195 198 199 198 195 200 205 194 190 193 194 197 192 182 190 209 221 226 220 215 224 228 232 245 256 265 274 283 294 305 312 314 317 320 323 321 316 315 317 318 319 321 323 324 323 321 320 320 321 322 322 324 325 325 325 326 326 327 326 327 328 328 326 322 318
214 220 225 223 217 215 216 212 200 195 198 202 205 206 212 216 208 201 200 197 200 203 201 207 223 231 221 207 209 221 227 235 249 264 275 283 291 299 306 308 310 313 317 318 317 318 322 323 324 326 330 333 337 337 331 325 321 319 319 320 322 322 322 323 324 325 327 329 330 330 328 325 323 322
217 221 226 228 230 229 225 220 212 206 205 207 213 218 220 221 220 215 209 208 212 213 210 216 230 239 223 210 216 231 241 251 264 274 282 288 293 298 302 304 306 311 315 315 313 318 325 327 325 328 339 348 350 347 336 326 323 321 321 321 321 319 317 318 322 326 331 335 335 331 328 326 324 323
217 222 227 228 230 231 231 229 221 215 216 217 222 228 227 224 225 223 219 219 223 222 221 226 234 239 239 235 239 250 261 269 276 282 287 292 295 298 302 303 305 312 317 316 313 316 324 328 327 332 343 351 352 345 328 319 316 316 316 318 319 317 316 320 325 328 330 334 332 327 327 328 327 326
217 225 230 230 229 231 234 234 230 226 228 230 232 236 239 236 232 228 225 223 224 228 232 238 241 243 246 249 254 261 267 272 278 283 288 292 295 298 301 303 307 313 319 319 316 315 319 324 329 334 337 338 338 327 312 308 308 309 313 316 316 315 317 323 326 323 320 320 319 318 321 325 326 325
223 225 227 229 230 234 236 235 236 238 239 240 243 248 251 247 239 233 229 229 234 242 245 244 244 246 248 251 256 262 267 273 280 286 290 294 297 300 303 307 310 314 317 316 314 314 317 320 323 325 324 321 316 308 304 303 304 306 309 309 308 309 311 314 316 314 310 308 307 310 315 318 320 321
229 224 227 231 233 236 237 236 240 245 244 246 252 256 256 248 239 235 234 234 238 244 248 247 246 247 250 253 258 265 272 280 286 291 295 299 301 303 306 309 312 315 315 311 309 311 313 312 311 311 309 305 302 301 301 301 303 305 301 296 299 303 303 305 307 308 307 305 306 309 311 312 314 317
237 233 232 234 237 240 239 241 249 253 252 252 255 257 253 242 234 233 233 234 238 244 248 250 249 250 254 258 263 270 278 286 291 295 299 301 303 305 307 309 312 314 311 307 307 308 306 302 301 301 300 299 298 299 299 299 301 300 291 288 294 297 297 299 300 301 303 304 306 308 308 309 310 311
246 245 242 244 248 247 245 248 254 254 251 251 252 252 245 233 226 227 230 235 241 246 249 251 251 254 258 262 268 275 282 288 293 297 301 302 304 306 307 309 312 314 310 307 309 311 308 305 304 302 300 298 298 298 298 298 297 293 287 287 290 293 295 295 294 296 299 301 303 304 305 306 307 308
251 250 252 255 253 248 248 254 253 247 244 245 245 242 236 227 222 223 228 235 243 249 252 254 255 256 259 264 271 279 286 290 294 298 301 302 303 306 309 310 314 316 313 311 313 315 313 312 311 308 305 301 299 298 296 294 294 294 292 290 291 296 298 294 290 289 292 297 301 303 303 304 305 306
252 254 257 258 253 250 252 251 245 241 241 238 233 231 229 225 222 226 232 237 243 248 251 253 254 256 261 269 277 285 291 294 297 299 301 301 302 306 312 316 319 320 317 315 316 315 313 312 312 310 307 304 301 299 298 298 300 301 300 300 302 304 302 293 285 285 289 296 301 302 304 305 307 309
254 255 256 256 255 252 246 236 232 236 236 232 228 227 226 224 226 232 236 239 242 244 245 248 253 260 268 274 281 289 296 299 301 303 302 301 304 311 318 321 321 320 318 316 314 312 310 309 309 310 311 310 307 305 306 307 308 308 309 311 314 315 311 303 294 290 291 296 301 306 310 312 314 315
255 256 256 254 251 242 229 224 226 228 230 228 226 226 226 226 227 230 231 234 238 240 242 248 256 263 268 275 283 292 297 298 300 300 301 304 310 315 317 317 316 315 313 311 309 307 306 307 307 309 313 314 313 312 314 315 316 320 325 330 331 330 331 327 315 305 303 305 309 314 317 320 323 325
256 256 254 249 243 233 227 224 221 220 221 221 220 226 229 226 221 221 225 230 235 239 244 250 257 263 272 283 290 294 295 296 297 300 303 306 308 309 310 310 309 308 307 307 307 307 308 309 310 311 313 317 318 320 321 321 324 331 337 339 339 339 340 337 330 325 325 324 325 326 326 329 332 330
256 255 250 243 235 228 222 218 216 214 214 214 220 227 228 222 218 221 229 235 239 243 249 256 264 274 284 290 291 290 291 293 295 296 297 298 300 303 305 304 304 305 306 307 310 312 311 311 312 315 319 321 320 322 323 324 327 333 336 337 339 342 344 342 341 344 343 336 335 334 332 333 333 331
257 253 243 232 223 217 215 215 213 211 209 212 220 223 220 218 220 226 236 245 247 249 254 260 268 276 280 279 279 280 283 286 288 291 294 296 299 298 296 296 298 301 303 306 309 309 308 309 312 316 318 318 318 320 321 321 323 327 330 334 338 341 344 345 345 344 341 336 335 334 331 330 330 330
253 242 232 222 215 212 212 211 209 208 209 212 213 212 212 214 218 225 235 243 247 252 259 263 265 266 267 268 269 271 273 276 281 286 289 290 289 287 286 290 294 297 299 301 302 302 301 305 310 311 310 311 313 315 317 316 317 320 323 328 334 338 340 341 337 334 334 332 329 327 325 323 325 327
237 230 228 222 213 207 204 202 203 205 206 204 203 204 206 210 215 222 229 236 245 253 259 260 259 259 262 266 269 269 269 270 274 279 282 283 283 283 284 286 289 291 293 295 296 296 299 302 303 302 301 302 305 309 311 311 310 313 319 324 327 330 333 333 330 329 329 327 323 322 321 319 319 322
226 227 226 213 203 200 200 201 203 201 198 196 197 200 204 209 215 222 232 242 249 253 254 256 257 258 261 264 266 269 271 274 278 280 282 283 284 285 286 288 289 289 290 291 293 297 301 300 297 295 294 296 299 303 306 306 306 310 316 320 321 321 324 325 325 325 325 323 322 321 318 317 315 315
220 215 216 211 201 197 198 199 198 196 194 194 197 201 206 213 220 230 242 247 246 245 248 252 256 257 259 261 264 270 275 278 280 280 280 282 285 287 290 294 295 294 293 296 301 303 297 291 291 294 295 296 297 299 300 302 305 309 314 319 319 317 318 320 323 324 324 322 321 319 316 316 315 313
206 202 210 209 197 190 191 190 190 192 193 195 201 207 213 220 228 235 239 236 233 240 248 252 255 257 260 266 272 277 278 278 276 277 279 283 286 289 291 294 297 301 306 313 321 321 305 292 289 290 291 291 294 297 299 300 304 309 314 318 317 314 315 319 322 323 323 322 320 319 320 323 325 323
204 201 203 199 189 187 188 186 187 190 193 196 203 210 215 219 223 225 227 229 235 245 249 250 253 258 267 277 280 278 275 273 274 277 282 287 291 293 295 298 306 315 320 325 332 333 323 310 300 292 288 286 289 295 301 303 306 311 314 317 318 318 318 320 319 319 321 321 320 321 323 327 334 336
205 200 195 188 185 185 185 184 186 188 192 197 203 208 212 214 216 221 227 233 240 245 251 258 265 274 281 282 278 273 273 277 281 286 293 299 302 303 305 312 319 324 324 322 325 327 326 322 315 305 297 290 286 290 302 308 312 317 318 318 318 316 315 317 319 320 323 323 321 322 325 329 338 342
202 194 186 180 180 181 181 184 186 187 190 194 198 206 211 211 217 226 232 237 242 252 267 276 279 280 279 275 271 274 281 284 289 295 301 305 305 306 313 320 320 318 315 314 320 328 330 327 324 317 311 307 305 308 320 325 322 322 320 317 316 315 317 321 326 328 328 327 325 327 328 331 339 343
197 187 179 173 175 177 177 179 179 181 187 190 193 204 212 210 216 226 232 237 245 257 266 270 272 272 271 270 275 282 286 290 297 304 308 308 308 312 317 315 311 308 307 312 324 334 333 330 330 328 325 326 326 325 328 334 333 327 320 317 320 327 329 329 331 333 332 331 332 332 330 330 335 341
191 183 173 168 170 169 170 173 177 184 193 194 192 198 204 204 204 210 217 227 240 253 261 268 274 271 268 275 286 289 295 304 311 314 315 315 315 313 309 309 310 311 315 327 337 339 336 333 332 333 334 334 330 324 325 335 350 351 328 321 329 337 335 330 332 338 338 336 335 334 330 327 332 341
187 174 162 164 168 168 171 181 188 191 195 193 188 188 192 192 189 195 211 232 250 263 277 287 286 274 269 289 302 302 309 316 315 314 314 313 310 306 306 311 318 328 334 338 341 342 340 336 333 334 334 331 326 321 322 333 359 32 357 327 330 335 335 334 336 339 339 337 336 336 333 330 334 341
187 180 173 171 170 173 180 187 190 188 186 185 184 185 185 181 181 195 216 234 247 264 278 276 263 248 250 275 289 295 303 308 306 303 303 303 302 304 306 312 328 343 337 336 341 346 347 341 334 330 324 317 316 314 313 321 346 21 2 332 332 336 337 338 337 337 337 338 339 340 339 336 336 333
197 203 204 191 178 179 180 178 177 180 181 182 185 189 188 183 184 196 210 223 240 258 263 247 230 226 240 258 272 281 287 292 294 294 295 296 297 300 305 315 342 350 340 337 342 348 351 344 332 323 316 309 307 308 308 315 339 8 358 342 338 338 337 337 337 337 338 339 343 346 347 348 344 332
193 191 190 188 183 178 171 168 174 181 183 184 188 192 195 195 195 199 210 229 247 253 237 221 223 235 247 256 269 276 279 282 286 287 288 291 294 300 315 335 346 347 342 339 344 348 347 339 329 322 316 308 306 312 322 331 350 4 1 350 341 337 337 337 338 338 340 343 349 353 353 354 358 357
179 168 167 176 177 169 165 170 179 184 186 189 191 193 195 198 202 208 220 234 240 233 223 224 237 253 262 265 271 275 275 276 280 283 288 294 302 324 349 341 338 342 341 339 343 345 341 335 331 327 321 313 314 330 343 349 355 359 354 344 340 341 343 343 341 343 348 354 358 359 0 5 10 10
166 160 164 172 173 170 174 179 183 185 187 190 191 191 193 198 205 210 210 212 216 220 228 247 269 278 278 277 277 278 278 285 293 300 305 314 336 356 344 332 337 345 342 339 341 342 341 341 338 335 336 339 344 348 351 352 352 348 342 341 347 351 350 347 347 353 2 7 8 7 9 12 12 10
168 163 164 170 176 180 183 184 184 184 183 182 185 191 193 198 204 202 191 192 206 223 247 273 280 284 289 289 284 282 286 299 310 315 324 353 8 355 342 345 355 352 344 341 342 345 352 357 350 349 12 18 355 350 347 342 340 338 339 346 356 356 352 351 356 5 14 21 22 22 24 25 22 18
171 164 165 176 184 184 183 182 181 178 176 180 190 198 196 193 194 192 190 200 219 238 254 264 271 284 294 292 289 287 287 292 298 307 336 10 3 351 354 9 7 354 349 350 351 356 6 12 12 24 38 0 348 345 337 331 334 341 345 353 360 359 356 359 6 14 26 36 35 31 31 32 28 24
Height
1557 1558 1558 1559 1560 1561 1563 1564 1566 1567 1568 1568 1569 1570 1570 1570 1572 1574 1576 1577 1577 1578 1579 1579 1579 1579 1580 1579 1579 1579 1579 1579 1578 1578 1577 1577 1576 1576 1576 1575 1575 1574 1573 1572 1571 1571 1570 1570 1569 1568 1568 1567 1566 1566 1565 1564 1563 1562 1562 1561 1560 1560 1559 1558 1557 1557 1556 1555 1555 1554 1554 1553 1553 1552
1557 1558 1559 1560 1561 1562 1563 1565 1566 1567 1568 1568 1570 1571 1571 1571 1571 1572 1574 1576 1577 1578 1578 1579 1579 1579 1579 1579 1579 1578 1578 1578 1578 1577 1577 1576 1576 1576 1576 1575 1574 1574 1573 1572 1571 1570 1570 1569 1568 1568 1567 1566 1566 1565 1564 1563 1562 1562 1561 1560 1559 1558 1557 1556 1556 1555 1554 1554 1553 1552 1552 1551 1551 1550
1557 1559 1560 1561 1562 1563 1564 1565 1566 1567 1568 1569 1570 1570 1571 1572 1572 1572 1573 1575 1577 1578 1578 1578 1578 1579 1579 1579 1579 1579 1578 1578 1577 1577 1576 1575 1575 1576 1575 1575 1574 1573 1572 1571 1571 1570 1569 1569 1568 1567 1566 1566 1565 1564 1563 1562 1561 1560 1560 1558 1558 1557 1556 1555 1554 1554 1553 1552 1552 1551 1550 1549 1549 1548
1557 1558 1560 1561 1562 1564 1565 1566 1566 1567 1568 1569 1570 1571 1571 1572 1573 1573 1573 1574 1576 1578 1578 1578 1578 1578 1578 1578 1579 1579 1579 1578 1577 1577 1576 1575 1575 1575 1575 1574 1573 1572 1572 1571 1570 1569 1569 1568 1567 1567 1566 1565 1564 1563 1562 1561 1560 1559 1558 1557 1556 1555 1554 1554 1553 1552 1551 1550 1550 1549 1548 1547 1547 1546
1557 1558 1559 1561 1563 1564 1565 1566 1567 1568 1569 1569 1570 1572 1572 1573 1574 1575 1575 1575 1576 1577 1578 1578 1578 1578 1578 1578 1578 1579 1578 1578 1577 1576 1575 1575 1575 1575 1574 1574 1573 1572 1571 1570 1569 1569 1568 1567 1566 1566 1565 1564 1563 1562 1561 1560 1559 1558 1557 1555 1554 1553 1553 1552 1551 1550 1549 1548 1547 1547 1546 1545 1544 1544
1558 1559 1560 1561 1563 1564 1565 1566 1568 1568 1569 1569 1571 1572 1573 1574 1575 1575 1575 1576 1576 1576 1577 1578 1578 1578 1578 1577 1578 1578 1578 1577 1577 1576 1575 1574 1574 1574 1574 1573 1572 1572 1571 1570 1569 1568 1567 1566 1565 1564 1563 1563 1562 1561 1560 1558 1557 1556 1555 1554 1553 1552 1551 1550 1549 1548 1547 1546 1545 1544 1543 1543 1542 1541
1558 1559 1560 1562 1563 1564 1565 1566 1568 1568 1569 1570 1571 1572 1573 1573 1574 1574 1575 1575 1575 1576 1576 1577 1577 1577 1577 1577 1577 1577 1577 1577 1576 1576 1575 1574 1573 1573 1573 1572 1572 1571 1571 1569 1568 1567 1566 1565 1564 1563 1562 1561 1560 1560 1558 1557 1556 1555 1554 1553 1551 1550 1549 1548 1547 1546 1545 1544 1543 1542 1541 1540 1539 1538
1560 1560 1561 1562 1563 1564 1565 1566 1567 1568 1569 1570 1571 1572 1572 1573 1573 1574 1574 1574 1575 1575 1575 1576 1577 1577 1576 1577 1577 1576 1577 1576 1576 1575 1574 1573 1573 1573 1573 1572 1572 1571 1570 1568 1567 1566 1565 1564 1563 1562 1561 1560 1559 1558 1557 1555 1554 1553 1552 1551 1550 1548 1547 1546 1545 1544 1543 1541 1540 1539 1538 1537 1536 1535
1560 1561 1562 1563 1564 1564 1565 1566 1567 1568 1568 1569 1570 1571 1572 1572 1572 1573 1574 1574 1574 1575 1575 1575 1576 1576 1576 1576 1576 1575 1576 1575 1574 1574 1574 1574 1574 1574 1573 1572 1572 1571 1569 1567 1566 1565 1564 1563 1562 1561 1560 1558 1557 1556 1555 1554 1552 1551 1550 1549 1548 1547 1545 1544 1542 1541 1540 1539 1538 1536 1535 1534 1533 1532
1560 1561 1562 1562 1563 1564 1565 1565 1566 1567 1568 1568 1569 1570 1571 1572 1572 1573 1573 1574 1574 1574 1574 1574 1575 1575 1575 1575 1575 1574 1574 1574 1573 1573 1573 1573 1572 1572 1572 1571 1570 1569 1568 1566 1565 1564 1563 1562 1561 1559 1558 1557 1556 1554 1553 1552 1550 1549 1548 1547 1546 1545 1543 1542 1540 1539 1537 1536 1535 1533 1532 1531 1530 1529
1559 1560 1561 1562 1562 1563 1564 1565 1566 1566 1566 1567 1567 1568 1570 1571 1572 1572 1573 1573 1573 1573 1574 1574 1574 1574 1574 1574 1574 1573 1573 1573 1572 1572 1572 1571 1571 1571 1570 1569 1568 1567 1566 1565 1564 1563 1562 1561 1560 1558 1557 1555 1554 1552 1551 1550 1548 1547 1546 1545 1544 1543 1541 1540 1538 1536 1535 1533 1532 1530 1529 1528 1527 1526
1558 1559 1560 1561 1562 1562 1563 1564 1565 1565 1565 1566 1566 1567 1568 1569 1570 1570 1571 1572 1572 1573 1573 1572 1572 1572 1573 1573 1572 1571 1571 1571 1570 1570 1570 1570 1569 1569 1568 1567 1565 1564 1563 1563 1562 1561 1560 1559 1557 1556 1554 1553 1551 1550 1549 1548 1547 1545 1544 1543 1542 1540 1539 1538 1536 1535 1533 1531 1529 1528 1526 1525 1524 1523
1557 1558 1559 1560 1560 1561 1562 1563 1564 1564 1565 1565 1565 1566 1566 1567 1568 1568 1569 1570 1570 1571 1571 1571 1571 1571 1571 1571 1570 1569 1569 1569 1569 1568 1568 1567 1567 1566 1566 1565 1563 1562 1561 1560 1558 1558 1557 1555 1554 1553 1551 1550 1549 1548 1547 1546 1545 1543 1542 1541 1540 1538 1537 1536 1534 1532 1531 1529 1528 1526 1524 1522 1521 1519
1556 1556 1557 1557 1558 1559 1560 1561 1562 1563 1563 1564 1564 1565 1565 1565 1566 1566 1567 1567 1568 1568 1568 1569 1569 1569 1569 1569 1568 1568 1567 1567 1567 1566 1566 1565 1564 1564 1563 1562 1561 1560 1558 1557 1555 1555 1555 1553 1551 1550 1549 1548 1547 1546 1545 1544 1543 1541 1540 1539 1538 1536 1535 1533 1532 1530 1529 1528 1526 1524 1522 1520 1518 1517
1554 1554 1554 1555 1555 1556 1557 1558 1559 1560 1561 1562 1562 1563 1563 1563 1564 1564 1564 1565 1565 1566 1566 1566 1566 1566 1567 1567 1566 1566 1566 1565 1565 1564 1563 1563 1562 1561 1560 1559 1558 1557 1556 1554 1552 1552 1552 1550 1549 1548 1547 1546 1546 1545 1544 1542 1541 1540 1538 1537 1535 1534 1533 1531 1530 1529 1527 1526 1524 1523 1521 1519 1516 1515
1552 1552 1552 1552 1553 1554 1554 1556 1557 1558 1559 1559 1560 1560 1560 1561 1561 1562 1562 1562 1563 1563 1564 1564 1564 1564 1564 1564 1564 1564 1564 1563 1563 1562 1561 1561 1560 1559 1558 1556 1555 1555 1553 1551 1549 1549 1549 1548 1547 1546 1546 1545 1544 1543 1542 1541 1539 1538 1536 1534 1533 1531 1530 1529 1528 1527 1525 1524 1522 1521 1519 1517 1515 1513
1549 1550 1550 1550 1551 1552 1552 1553 1554 1555 1556 1557 1557 1557 1558 1558 1559 1559 1560 1560 1560 1561 1561 1561 1561 1561 1562 1562 1562 1562 1562 1561 1561 1560 1559 1558 1557 1556 1556 1554 1553 1552 1551 1548 1546 1546 1546 1545 1544 1544 1544 1543 1542 1541 1540 1538 1537 1535 1533 1532 1530 1529 1528 1527 1525 1524 1523 1522 1520 1519 1517 1515 1513 1511
1547 1548 1548 1548 1549 1549 1549 1550 1551 1552 1553 1554 1554 1555 1555 1555 1556 1556 1557 1557 1558 1558 1559 1559 1559 1559 1559 1560 1559 1559 1559 1559 1558 1557 1556 1556 1555 1554 1553 1552 1551 1550 1548 1545 1543 1543 1543 1543 1542 1542 1541 1540 1539 1539 1537 1536 1534 1533 1532 1530 1529 1528 1526 1525 1523 1522 1521 1519 1518 1516 1515 1513 1511 1509
1543 1544 1545 1545 1546 1547 1547 1548 1549 1549 1550 1551 1552 1552 1552 1552 1553 1553 1554 1554 1555 1556 1556 1556 1557 1557 1557 1557 1557 1557 1556 1556 1555 1555 1554 1553 1552 1551 1551 1550 1549 1549 1546 1543 1542 1542 1541 1540 1539 1539 1538 1537 1537 1537 1535 1533 1532 1531 1530 1529 1527 1526 1524 1523 1521 1520 1518 1517 1515 1513 1512 1510 1508 1507
1539 1540 1541 1541 1542 1543 1544 1545 1546 1546 1547 1548 1548 1548 1548 1549 1549 1550 1551 1552 1553 1554 1554 1554 1554 1555 1555 1555 1554 1554 1554 1553 1553 1552 1551 1551 1549 1548 1548 1547 1547 1546 1544 1542 1541 1540 1539 1537 1536 1535 1535 1535 1534 1534 1532 1530 1529 1529 1528 1527 1525 1524 1522 1520 1519 1517 1515 1514 1512 1511 1509 1507 1506 1504
1535 1536 1537 1537 1538 1539 1540 1542 1542 1543 1544 1544 1545 1545 1545 1546 1546 1547 1548 1549 1550 1551 1552 1552 1552 1552 1552 1552 1552 1552 1551 1551 1550 1550 1549 1548 1547 1546 1545 1545 1544 1544 1542 1540 1539 1538 1536 1535 1533 1532 1532 1532 1532 1530 1529 1527 1527 1526 1525 1524 1522 1521 1519 1517 1515 1513 1512 1511 1510 1508 1506 1505 1503 1501
1530 1531 1533 1533 1534 1535 1536 1538 1539 1539 1540 1541 1541 1542 1542 1543 1544 1545 1546 1547 1548 1549 1549 1550 1550 1550 1550 1550 1550 1549 1549 1549 1548 1548 1546 1545 1544 1544 1544 1543 1542 1542 1540 1538 1537 1536 1534 1532 1531 1529 1527 1527 1528 1527 1525 1524 1524 1523 1521 1520 1518 1517 1515 1513 1511 1510 1509 1508 1507 1505 1504 1502 1501 1499
1525 1526 1528 1529 1530 1531 1533 1535 1536 1536 1536 1537 1538 1539 1539 1540 1542 1543 1544 1545 1546 1546 1547 1547 1548 1548 1548 1548 1548 1547 1547 1546 1546 1545 1544 1543 1543 1543 1542 1541 1540 1539 1538 1536 1534 1533 1531 1530 1528 1526 1524 1522 1522 1522 1521 1521 1520 1519 1517 1516 1515 1513 1511 1509 1508 1507 1506 1505 1504 1503 1502 1500 1498 1497
1521 1522 1523 1524 1526 1528 1529 1531 1532 1533 1533 1534 1536 1536 1536 1538 1540 1541 1542 1543 1543 1544 1545 1546 1546 1546 1546 1546 1546 1546 1545 1545 1544 1543 1542 1542 1541 1541 1541 1540 1539 1537 1536 1535 1533 1531 1529 1528 1527 1525 1524 1521 1518 1518 1518 1517 1517 1516 1514 1513 1512 1510 1508 1507 1506 1504 1504 1503 1502 1501 1499 1498 1496 1494
1517 1518 1519 1520 1522 1524 1525 1527 1528 1529 1530 1531 1533 1534 1535 1537 1538 1539 1540 1541 1542 1543 1543 1544 1544 1544 1544 1544 1544 1543 1543 1543 1542 1542 1541 1540 1540 1540 1539 1538 1537 1536 1535 1534 1532 1529 1528 1526 1525 1523 1522 1520 1518 1516 1515 1514 1514 1513 1512 1511 1509 1508 1506 1504 1503 1502 1501 1500 1500 1498 1497 1496 1494 1492
1513 1514 1516 1516 1517 1518 1520 1523 1524 1526 1528 1529 1530 1532 1533 1535 1536 1537 1538 1539 1540 1541 1542 1542 1542 1543 1542 1542 1542 1541 1542 1541 1541 1540 1540 1539 1539 1538 1537 1536 1535 1534 1533 1532 1530 1528 1526 1525 1523 1522 1520 1518 1516 1515 1513 1512 1511 1511 1510 1509 1508 1506 1504 1503 1501 1500 1499 1498 1497 1496 1495 1494 1492 1490
1510 1511 1512 1512 1513 1515 1517 1520 1522 1524 1526 1527 1528 1530 1531 1533 1534 1535 1536 1537 1538 1539 1540 1541 1541 1541 1541 1541 1540 1540 1540 1540 1539 1539 1538 1538 1537 1536 1536 1534 1533 1532 1531 1530 1529 1527 1525 1523 1522 1521 1519 1517 1515 1513 1512 1510 1509 1508 1507 1506 1506 1505 1503 1502 1500 1499 1498 1496 1495 1494 1493 1492 1490 1488
1507 1508 1509 1511 1512 1513 1515 1518 1521 1523 1524 1525 1527 1528 1530 1531 1533 1534 1535 1536 1537 1538 1538 1539 1540 1540 1539 1539 1539 1539 1539 1538 1538 1537 1536 1536 1536 1535 1534 1533 1532 1531 1529 1528 1527 1525 1523 1522 1521 1520 1518 1516 1514 1512 1510 1508 1507 1506 1505 1503 1503 1502 1501 1500 1499 1497 1496 1494 1493 1492 1490 1489 1487 1486
1504 1505 1507 1510 1511 1511 1513 1516 1519 1521 1522 1524 1525 1527 1529 1530 1532 1533 1534 1535 1536 1536 1537 1537 1538 1538 1538 1538 1538 1538 1538 1537 1536 1536 1535 1534 1534 1533 1532 1531 1530 1529 1528 1526 1524 1523 1521 1520 1519 1518 1516 1515 1513 1511 1509 1507 1505 1504 1503 1502 1500 1499 1499 1498 1497 1495 1494 1492 1491 1490 1488 1486 1485 1483
1503 1504 1506 1508 1508 1509 1511 1514 1516 1518 1520 1522 1524 1525 1527 1529 1530 1531 1532 1533 1535 1536 1536 1536 1537 1537 1537 1537 1537 1536 1536 1535 1534 1534 1533 1532 1532 1531 1530 1529 1528 1527 1525 1523 1521 1520 1519 1518 1517 1515 1514 1513 1511 1510 1508 1506 1503 1502 1502 1501 1499 1497 1496 1496 1495 1493 1492 1490 1489 1488 1486 1484 1483 1481
1500 1502 1506 1507 1506 1507 1510 1512 1514 1516 1518 1520 1522 1524 1525 1527 1529 1530 1531 1532 1533 1534 1535 1535 1536 1536 1536 1536 1536 1535 1534 1533 1532 1532 1531 1531 1530 1529 1528 1526 1525 1524 1522 1521 1519 1518 1517 1516 1515 1513 1512 1510 1509 1508 1506 1505 1502 1500 1500 1499 1497 1495 1494 1493 1492 1491 1490 1488 1487 1485 1483 1481 1480 1478
1497 1498 1503 1505 1504 1504 1507 1510 1512 1514 1516 1518 1520 1522 1524 1526 1527 1529 1530 1531 1532 1532 1533 1534 1534 1534 1535 1535 1534 1533 1532 1532 1531 1530 1530 1529 1528 1527 1526 1524 1523 1521 1519 1518 1517 1516 1515 1514 1513 1511 1510 1508 1507 1505 1504 1503 1501 1499 1498 1497 1496 1494 1493 1491 1490 1489 1488 1486 1484 1482 1481 1479 1477 1475
1495 1496 1499 1501 1501 1502 1504 1507 1510 1512 1514 1516 1518 1520 1522 1524 1525 1526 1528 1529 1530 1531 1532 1532 1533 1533 1533 1533 1532 1531 1531 1530 1530 1529 1529 1528 1527 1525 1524 1522 1521 1520 1518 1516 1515 1514 1513 1512 1510 1509 1508 1506 1505 1503 1502 1500 1499 1498 1497 1495 1494 1492 1491 1490 1489 1487 1486 1484 1482 1480 1479 1477 1476 1474
1492 1495 1496 1497 1498 1500 1502 1505 1507 1510 1512 1514 1516 1518 1520 1521 1523 1524 1526 1527 1528 1529 1530 1531 1531 1531 1531 1531 1530 1530 1529 1529 1529 1528 1527 1526 1525 1523 1522 1521 1520 1519 1517 1515 1514 1512 1511 1509 1507 1506 1505 1504 1503 1502 1501 1499 1497 1496 1495 1494 1492 1491 1489 1488 1487 1486 1484 1483 1480 1478 1476 1474 1473 1472
1490 1492 1493 1494 1496 1498 1501 1503 1506 1508 1510 1512 1514 1516 1518 1519 1521 1522 1524 1526 1527 1528 1528 1529 1529 1529 1529 1529 1529 1528 1528 1528 1528 1527 1525 1524 1523 1522 1521 1520 1519 1518 1516 1514 1512 1511 1509 1507 1505 1503 1502 1500 1499 1499 1499 1498 1496 1494 1493 1491 1490 1489 1487 1486 1486 1484 1483 1481 1479 1477 1473 1471 1470 1469
1491 1492 1491 1492 1494 1497 1499 1502 1504 1507 1509 1511 1513 1515 1516 1517 1519 1520 1522 1524 1525 1526 1527 1527 1528 1528 1528 1527 1527 1528 1528 1527 1526 1525 1524 1522 1521 1521 1520 1519 1517 1516 1514 1512 1511 1509 1508 1506 1504 1502 1500 1498 1496 1496 1496 1496 1495 1493 1491 1489 1488 1487 1486 1485 1484 1483 1481 1480 1478 1475 1472 1469 1468 1467
1492 1491 1489 1490 1493 1496 1498 1500 1503 1505 1507 1510 1512 1513 1515 1516 1518 1519 1521 1522 1523 1524 1525 1526 1527 1527 1527 1527 1527 1527 1526 1526 1525 1523 1522 1521 1521 1520 1519 1517 1515 1514 1512 1511 1510 1508 1506 1505 1503 1501 1499 1498 1496 1494 1493 1493 1494 1492 1490 1488 1487 1487 1486 1484 1483 1481 1480 1478 1475 1473 1471 1468 1467 1466
1491 1489 1487 1489 1491 1494 1497 1499 1501 1504 1506 1508 1510 1512 1514 1515 1517 1518 1520 1521 1522 1523 1524 1525 1525 1525 1526 1526 1526 1525 1525 1524 1523 1522 1521 1520 1519 1519 1517 1516 1514 1512 1511 1510 1508 1507 1505 1503 1502 1501 1499 1498 1496 1494 1492 1491 1492 1491 1490 1488 1487 1486 1485 1483 1481 1479 1477 1476 1474 1472 1470 1467 1466 1465
1489 1488 1488 1489 1490 1493 1495 1498 1500 1503 1505 1507 1509 1511 1512 1513 1515 1516 1518 1519 1520 1522 1523 1524 1524 1524 1524 1524 1524 1524 1524 1523 1522 1521 1520 1519 1518 1517 1516 1514 1512 1511 1509 1508 1507 1505 1504 1502 1501 1500 1499 1497 1496 1494 1492 1491 1490 1490 1489 1488 1487 1485 1483 1482 1480 1478 1476 1474 1472 1470 1468 1467 1465 1464
1486 1486 1488 1490 1491 1493 1495 1497 1500 1503 1505 1507 1509 1510 1511 1512 1513 1515 1517 1518 1519 1521 1522 1523 1523 1523 1523 1523 1523 1523 1522 1521 1521 1520 1519 1518 1517 1516 1514 1513 1511 1510 1508 1507 1505 1504 1502 1501 1500 1498 1497 1496 1495 1494 1492 1491 1490 1490 1489 1487 1486 1484 1482 1480 1479 1477 1475 1472 1470 1469 1467 1466 1465 1463
1484 1484 1487 1490 1492 1493 1495 1497 1500 1503 1505 1507 1509 1510 1511 1512 1513 1514 1516 1517 1519 1520 1521 1521 1521 1522 1522 1522 1522 1522 1521 1520 1520 1519 1518 1517 1516 1514 1513 1512 1510 1508 1507 1505 1504 1502 1501 1500 1498 1497 1496 1495 1494 1493 1492 1491 1490 1489 1488 1486 1485 1483 1481 1480 1478 1476 1474 1472 1470 1468 1466 1465 1464 1462
1483 1484 1486 1490 1492 1494 1495 1497 1500 1503 1505 1507 1508 1509 1510 1511 1512 1514 1515 1516 1517 1518 1519 1520 1521 1521 1521 1521 1521 1520 1520 1519 1518 1517 1517 1515 1514 1513 1512 1510 1509 1507 1506 1504 1503 1501 1500 1498 1497 1496 1494 1493 1493 1492 1491 1490 1489 1488 1487 1485 1484 1482 1481 1479 1477 1475 1473 1471 1469 1468 1466 1465 1463 1462
1484 1485 1487 1490 1493 1495 1496 1497 1500 1502 1504 1506 1507 1508 1510 1511 1512 1513 1514 1515 1516 1517 1518 1520 1520 1521 1520 1520 1519 1518 1518 1517 1517 1516 1515 1514 1513 1512 1511 1509 1508 1506 1505 1503 1502 1500 1499 1497 1495 1494 1493 1493 1492 1491 1491 1490 1488 1487 1486 1484 1483 1481 1480 1478 1477 1475 1473 1472 1470 1469 1467 1466 1464 1462
1485 1486 1488 1490 1493 1496 1496 1497 1499 1501 1504 1505 1507 1508 1509 1510 1511 1512 1513 1514 1515 1516 1518 1519 1520 1519 1519 1518 1518 1517 1516 1516 1516 1515 1514 1513 1512 1511 1509 1508 1507 1505 1504 1502 1501 1499 1498 1496 1495 1494 1493 1492 1492 1491 1490 1489 1488 1486 1485 1483 1482 1481 1480 1478 1476 1475 1473 1472 1471 1470 1469 1467 1466 1464
1485 1487 1488 1491 1493 1495 1496 1497 1499 1501 1503 1505 1506 1507 1508 1509 1510 1511 1512 1513 1514 1516 1517 1518 1518 1518 1517 1517 1516 1516 1516 1515 1515 1514 1514 1513 1511 1510 1508 1507 1506 1505 1503 1502 1500 1498 1497 1495 1494 1493 1493 1492 1491 1490 1489 1488 1487 1485 1484 1483 1482 1481 1480 1478 1477 1476 1474 1473 1472 1471 1470 1468 1466 1465